Location: Pasadena, ca
(34.1243°N, 118.1037°W)
Time: 16:15:24
(UTC-07:00)

Vanguard 2 - Visible Passes

Search period start: 17 July 2018 00:00
Search period end: 27 July 2018 00:00
Orbit: 553 x 2939 km, 32.9° (Epoch: 17 July)

Date Brightness Start Highest point End Pass type
(mag) Time Alt. Az. Time Alt. Az. Time Alt. Az.
17 Jul 10.1 01:54:32 10° W 02:06:43 42° WSW 02:06:43 42° WSW visible
17 Jul 10.3 21:45:51 10° W 22:03:39 86° S 22:19:47 10° E visible
17 Jul 9.9 23:58:52 10° W 00:16:43 72° SSW 00:21:08 53° SE visible
18 Jul 10.6 02:13:24 10° W 02:22:27 30° WSW 02:22:27 30° WSW visible
18 Jul 10.2 22:04:15 10° W 22:22:08 85° S 22:35:39 18° E visible
19 Jul 9.8 00:17:21 10° W 00:34:50 64° SSW 00:36:59 59° S visible
19 Jul 11.0 02:32:35 10° W 02:38:18 21° WSW 02:38:18 21° WSW visible
19 Jul 10.4 20:10:57 10° WSW 20:26:54 83° S 20:44:44 10° E visible
19 Jul 10.2 22:22:39 10° W 22:40:35 82° S 22:51:34 27° ESE visible
20 Jul 10.0 00:35:53 10° WNW 00:52:48 54° SSW 00:52:54 54° SSW visible
20 Jul 11.3 02:52:25 10° W 02:54:14 13° W 02:54:14 13° W visible
20 Jul 10.4 20:29:12 10° W 20:45:22 86° S 21:03:08 10° E visible
20 Jul 10.2 22:41:03 10° W 22:58:57 77° SSW 23:07:33 37° ESE visible
21 Jul 10.3 00:54:33 10° W 01:08:53 44° SW 01:08:53 44° SW visible
21 Jul 10.4 20:47:29 10° W 21:03:52 86° S 21:21:30 10° E visible
21 Jul 10.2 22:59:27 10° W 23:17:13 70° SSW 23:23:35 46° SE visible
22 Jul 10.7 01:13:25 10° W 01:24:56 33° WSW 01:24:56 33° WSW visible
22 Jul 10.3 21:05:48 10° W 21:22:21 84° S 21:38:21 14° ESE visible
22 Jul 10.1 23:17:53 10° W 23:35:20 61° SSW 23:39:41 51° SSE visible
23 Jul 11.0 01:32:41 10° W 01:41:02 24° WSW 01:41:02 24° WSW visible
23 Jul 10.3 21:24:07 10° W 21:40:47 80° SSW 21:54:29 21° ESE visible
23 Jul 10.2 23:36:24 10° W 23:53:20 53° SSW 23:55:50 50° S visible
24 Jul 11.3 01:52:39 10° W 01:57:11 16° WSW 01:57:11 16° WSW visible
24 Jul 10.3 21:42:26 10° W 21:59:08 74° SSW 22:10:40 28° ESE visible
24 Jul 10.4 23:55:03 10° W 00:11:11 43° SW 00:12:02 43° SSW visible
25 Jul 10.3 22:00:46 10° W 22:17:23 67° SSW 22:26:54 34° SE visible
26 Jul 10.7 00:13:57 10° W 00:28:16 35° SW 00:28:16 35° SW visible
26 Jul 10.3 20:08:06 10° W 20:22:40 83° S 20:40:51 10° ESE visible
26 Jul 10.4 22:19:09 10° W 22:35:32 59° SSW 22:43:12 38° SSE visible
